Time,TemperatureF,DewpointF,PressureIn,WindDirection,WindDirectionDegrees,WindSpeedMPH,WindSpeedGustMPH,Humidity,HourlyPrecipIn,Conditions,Clouds,dailyrainin,SoftwareType,DateUTC
2017-08-18 00:07:00,65.6,62.0,29.67,West,260,10.0,23.0,87,0.00,,,0.00,weatherlink.com 1.10,2017-08-18 05:07:00,
2017-08-18 00:22:00,65.5,62.0,29.67,West,273,12.0,17.0,87,0.00,,,0.00,weatherlink.com 1.10,2017-08-18 05:22:00,
2017-08-18 00:37:00,65.8,62.0,29.67,West,266,14.0,19.0,87,0.00,,,0.00,weatherlink.com 1.10,2017-08-18 05:37:00,
2017-08-18 00:52:00,65.7,62.0,29.68,West,274,8.0,22.0,87,0.00,,,0.00,weatherlink.com 1.10,2017-08-18 05:52:00,
2017-08-18 01:08:00,65.5,62.0,29.68,WSW,256,17.0,20.0,87,0.00,,,0.00,weatherlink.com 1.10,2017-08-18 06:08:00,
2017-08-18 01:22:00,65.4,62.0,29.68,West,269,12.0,20.0,88,0.00,,,0.00,weatherlink.com 1.10,2017-08-18 06:22:00,
2017-08-18 01:37:00,65.5,62.0,29.68,West,266,13.0,20.0,88,0.00,,,0.00,weatherlink.com 1.10,2017-08-18 06:37:00,
2017-08-18 01:52:00,65.5,62.0,29.68,WNW,282,15.0,26.0,88,0.00,,,0.00,weatherlink.com 1.10,2017-08-18 06:52:00,
2017-08-18 02:07:00,65.5,62.0,29.68,WNW,295,13.0,20.0,88,0.00,,,0.00,weatherlink.com 1.10,2017-08-18 07:07:00,
2017-08-18 02:23:00,65.5,62.0,29.68,WNW,293,13.0,24.0,87,0.00,,,0.00,weatherlink.com 1.10,2017-08-18 07:23:00,
2017-08-18 02:38:00,65.4,62.0,29.68,West,266,14.0,24.0,87,0.00,,,0.00,weatherlink.com 1.10,2017-08-18 07:38:00,
2017-08-18 02:52:00,65.3,61.0,29.68,WNW,286,12.0,19.0,87,0.00,,,0.00,weatherlink.com 1.10,2017-08-18 07:52:00,
2017-08-18 03:08:00,65.3,61.0,29.69,West,260,15.0,26.0,87,0.00,,,0.00,weatherlink.com 1.10,2017-08-18 08:08:00,
2017-08-18 03:23:00,65.0,61.0,29.69,West,265,19.0,22.0,88,0.00,,,0.00,weatherlink.com 1.10,2017-08-18 08:23:00,
2017-08-18 03:38:00,64.8,62.0,29.69,WNW,287,19.0,28.0,89,0.00,,,0.00,weatherlink.com 1.10,2017-08-18 08:38:00,
2017-08-18 03:53:00,63.8,62.0,29.69,West,274,13.0,18.0,93,0.00,,,0.00,weatherlink.com 1.10,2017-08-18 08:53:00,
2017-08-18 04:08:00,63.8,62.0,29.70,WNW,287,14.0,21.0,93,0.00,,,0.00,weatherlink.com 1.10,2017-08-18 09:08:00,
2017-08-18 04:23:00,64.1,62.0,29.70,West,273,19.0,20.0,93,0.00,,,0.00,weatherlink.com 1.10,2017-08-18 09:23:00,
2017-08-18 04:38:00,64.3,62.0,29.71,West,265,12.0,23.0,92,0.00,,,0.00,weatherlink.com 1.10,2017-08-18 09:38:00,
2017-08-18 04:53:00,64.3,62.0,29.71,WNW,294,13.0,20.0,92,0.00,,,0.00,weatherlink.com 1.10,2017-08-18 09:53:00,
2017-08-18 05:08:00,64.4,62.0,29.71,WSW,257,13.0,23.0,91,0.00,,,0.00,weatherlink.com 1.10,2017-08-18 10:08:00,
2017-08-18 05:23:00,64.5,62.0,29.72,WNW,284,11.0,20.0,90,0.00,,,0.00,weatherlink.com 1.10,2017-08-18 10:23:00,
2017-08-18 05:38:00,64.4,62.0,29.72,WNW,296,12.0,20.0,91,0.00,,,0.00,weatherlink.com 1.10,2017-08-18 10:38:00,
2017-08-18 05:53:00,64.3,62.0,29.73,NW,309,8.0,26.0,91,0.00,,,0.00,weatherlink.com 1.10,2017-08-18 10:53:00,